Location: Newark
(43.6583°N, 1.6617°E)
Time: 10:40:42
(UTC+00:00)

Courier 1B - Pass Details

Date: 01 September 2019
Orbit: 962 x 1209 km, 28.3° (Epoch: 15 September)

Event Time Altitude Azimuth Distance (km) Brightness Sun altitude
Rises 15:52:42 0° 247° (WSW) 4,005 12.0 27.3°
Reaches altitude 10° 15:56:13 10° 234° (SW) 3,003 11.4 26.7°
Maximum altitude 16:01:40 23° 185° (S) 2,144 9.7 25.7°
Drops below altitude 10° 16:06:54 10° 137° (SE) 2,861 9.7 24.8°
Sets 16:10:09 0° 123° (ESE) 3,772 10.2 24.2°
